TIME,DELAY(SENSOR),PRES,OXYGEN,RAWTEMP,T(OPTODE),TCPHASE,FLUOR,BETA(BETA700),BETA(BETA412),BETA(BETA440),CDOM,C(CSC),ED(ED412.40),ED(ED444.00),ED(ED489.70),ED(ED554.30),LU(LU411.80),LU(LU443.40),LU(LU489.60),LU(LU554.10),COMP,TILTX,TILTY,CHECK
1348457622,5806,844.9799804687500000,44.4098091125488300,661.5098266601562000,4.5782570838928220,54.3587112426757800,53,99,86,79,81,15252,2147757165,2147421449,2148007780,2147873417,2147643958,2147064000,2148253120,2147200201,975,4,13,26180
1348461218,5806,916.1900024414062000,46.7092399597168000,666.7606811523438000,4.4051461219787600,54.0947914123535160,53,100,90,80,80,15252,2147758518,2147423533,2148009526,2147872018,2147644973,2147064667,2148260370,2147198290,107,5,13,61474
1348464818,5809,923.5100097656250000,46.6622085571289060,666.9218750000000000,4.3998241424560550,54.0977401733398440,52,99,86,79,81,15248,2147758637,2147423670,2148009307,2147874404,2147645321,2147061824,2148260114,2147198098,126,4,13,4647
1348468418,5808,947.3499755859375000,47.5662689208984400,670.4661254882812000,4.2827987670898440,54.0184288024902340,53,101,87,80,81,15254,2147758537,2147420717,2148008475,2147874706,2147644772,2147058962,2148255753,2147198061,3008,4,13,54854
1348472018,5807,946.5399780273438000,47.4501304626464840,670.7661132812500000,4.2728881835937500,54.0366897583007800,53,99,89,79,81,15252,2147756370,2147420845,2148011446,2147872832,2147642413,2147059520,2148257938,2147195547,3032,5,13,12928
1348475618,5808,955.0900268554688000,47.5983695983886700,671.5828857421875000,4.2458930015563965,54.0292205810546900,53,105,88,80,82,15251,2147758061,2147424301,2148010276,2147872457,2147647689,2147062016,2148262436,2147197376,200,4,13,14824
1348479218,5807,977.0300292968750000,47.6656608581543000,673.6760253906250000,4.1766891479492190,54.0388107299804700,51,99,87,79,82,15250,2147760128,2147419958,2148009892,2147875986,2147645174,2147066788,2148264594,2147200530,253,4,13,33745
1348482818,5809,968.8800048828125000,48.1462287902832000,676.3336181640625000,4.0887451171875000,54.0054817199707000,52,100,90,78,81,15249,2147761490,2147420763,2148013467,2147875821,2147645037,2147059940,2148262043,2147194084,3090,5,13,23122
1348486418,5809,979.5399780273438000,48.3667716979980500,676.1224975585938000,4.0957360267639160,53.9765510559082000,53,99,90,79,81,15252,2147759542,2147423350,2148008000,2147876470,2147647195,2147063113,2148266404,2147198381,3577,4,13,7223
1348490018,5810,970.1699829101562000,48.1282691955566400,676.0582275390625000,4.0978641510009770,54.0052680969238300,53,101,92,79,82,15249,2147759862,2147423405,2148006939,2147874395,2147644324,2147060251,2148263552,2147197988,3243,4,13,23114
1348493618,5808,956.4099731445312000,48.5942497253418000,677.7520141601562000,4.0417771339416500,53.9607505798339840,53,100,89,79,81,15250,2147760320,2147422665,2148011812,2147875785,2147646299,2147063990,2148263588,2147197211,1311,4,13,23368
1348497218,5810,972.6799926757812000,49.1044692993164060,678.8848266601562000,4.0042500495910645,53.9040184020996100,53,98,84,79,80,15249,2147760118,2147423241,2148010843,2147874550,2147646793,2147060288,2148262930,2147197229,98,5,13,49852
1348500818,5811,977.3599853515625000,48.7478981018066400,677.9730224609375000,4.0344581604003910,53.9452209472656250,52,99,86,79,81,15249,2147760950,2147420736,2148006957,2147871085,2147644452,2147061961,2148256667,2147199652,33,5,13,11325
1348504418,5809,991.0999755859375000,48.4840583801269500,676.2713012695312000,4.0908088684082030,53.9627113342285160,53,98,92,79,81,15244,2147759076,2147424320,2148011748,2147874797,2147645851,2147063296,2148262208,2147196763,3027,5,13,48119
1348508018,5807,992.0499877929688000,47.2677307128906250,674.6091918945312000,4.1458191871643070,54.1115303039550800,52,98,91,80,82,15248,2147760109,2147423643,2148009974,2147875392,2147643081,2147068086,2148259254,2147200109,388,4,13,59778
1348511618,5808,999.8599853515625000,47.5407981872558600,673.4387817382812000,4.1845340728759770,54.0520591735839840,53,100,88,79,81,15247,2147761682,2147422089,2148010834,2147872932,2147646189,2147061238,2148261467,2147191433,163,5,13,61733
1348515218,5808,994.3699951171875000,47.1821403503418000,674.3225708007812000,4.1552982330322270,54.1158485412597660,53,97,89,79,82,15248,2147759140,2147421705,2148007433,2147871497,2147649307,2147066413,2148261933,2147197924,93,5,13,29532
1348518818,5807,1001.2600097656250000,47.4170989990234400,673.5349731445312000,4.1813511848449710,54.0747604370117200,53,98,86,78,81,15247,2147758555,2147422299,2148007067,2147873270,2147645092,2147064356,2148255552,2147196443,268,4,13,28652
1348522418,5811,991.9600219726562000,47.0365982055664060,674.7460937500000000,4.1412892341613770,54.1431312561035160,54,100,91,80,81,15245,2147758610,2147421714,2148008100,2147873152,2147643693,2147062198,2148261558,2147198912,3561,4,13,55190
1348526018,5809,997.3099975585938000,47.7709693908691400,675.3463745117188000,4.1214218139648440,54.0440788269043000,53,99,90,78,82,15243,2147756900,2147424676,2148009856,2147871670,2147645677,2147067017,2148260544,2147195812,3437,5,13,1084
1348529618,5810,996.0399780273438000,46.7834892272949200,674.8319702148438000,4.1384468078613280,54.1809883117675800,53,100,88,79,82,15242,2147758765,2147423433,2148007707,2147871524,2147645494,2147065664,2148261513,2147195437,283,4,13,51441
1348533218,5808,992.2299804687500000,47.3798294067382800,675.8989868164062000,4.1031317710876465,54.1081695556640600,53,98,84,79,81,15242,2147761709,2147423378,2148008146,2147872009,2147644973,2147058651,2148263808,2147198034,540,5,13,53412
1348536818,5809,994.8900146484375000,48.0064506530761700,676.4177856445312000,4.0859599113464355,54.0240516662597660,52,99,83,78,82,15239,2147760603,2147423085,2148008649,2147871936,2147642450,2147061860,2148264539,2147202020,1540,4,13,54849
1348540418,5811,998.8200073242188000,47.9443092346191400,675.4517211914062000,4.1179370880126950,54.0277900695800800,52,101,89,79,82,15239,2147761673,2147421312,2148009307,2147872969,2147642093,2147064566,2148258614,2147198976,3485,4,13,15827
1348544018,5808,997.1400146484375000,47.9889717102050800,675.8682250976562000,4.1041550636291500,54.0236701965332000,52,98,86,79,82,15239,2147762834,2147423131,2148006710,2147872969,2147641883,2147064987,2148264228,2147196032,449,5,13,43556
1348547618,5809,994.2600097656250000,47.9043006896972660,675.7927246093750000,4.1066508293151855,54.0320587158203100,53,100,85,81,81,15240,2147760713,2147423542,2148006729,2147875958,2147645293,2147064045,2148263424,2147195556,435,5,13,27350
1348551218,5810,995.0100097656250000,47.3753890991210940,675.2542724609375000,4.1244702339172360,54.1020698547363300,52,98,86,80,82,15239,2147760859,2147424283,2148008612,2147875565,2147644992,2147065609,2148262473,2147196434,69,5,13,37205
1348554818,5809,1003.9199829101562000,47.6228103637695300,674.4185791015625000,4.1521239280700680,54.0561408996582000,53,97,88,80,81,15238,2147758454,2147423652,2148009188,2147870875,2147644891,2147065426,2148261513,2147200676,2865,4,13,23545
1348558418,5813,1001.8300170898438000,47.5162696838378900,673.3261718750000000,4.1882548332214355,54.0610694885253900,52,99,86,79,81,15208,2147760356,2147423835,2148007314,2147877814,2147646308,2147064054,2148263826,2147200320,67,5,13,28699
1348562018,5809,991.0499877929688000,46.9402809143066400,674.2811889648438000,4.1566700935363770,54.1523895263671900,52,98,90,79,82,15208,2147760356,2147424192,2148007497,2147875611,2147641645,2147063753,2148260571,2147198189,447,5,13,55532
1348565618,5811,984.6599731445312000,47.5709800720214840,676.1389770507812000,4.0951900482177730,54.0830993652343750,52,100,87,80,83,15210,2147760320,2147421860,2148008173,2147874505,2147646153,2147062381,2148263744,2147198180,306,5,13,38199
1348569218,5806,990.8900146484375000,47.5082397460937500,677.3400268554688000,4.0554218292236330,54.1089210510253900,53,98,89,79,81,15207,2147763172,2147424667,2148007716,2147871314,2147643730,2147054628,2148260525,2147197083,3310,5,13,2557
1348572818,5810,986.8599853515625000,47.6777610778808600,677.0844726562500000,4.0638828277587890,54.0795707702636700,53,100,89,79,82,15217,2147762203,2147422774,2148008374,2147871844,2147644068,2147062491,2148264310,2147196717,238,5,13,17801
1348576418,5807,978.4799804687500000,47.8378295898437500,677.4152221679688000,4.0529332160949710,54.0605506896972660,53,102,88,79,81,15225,2147761078,2147420800,2148013741,2147871963,2147643172,2147064356,2148265307,2147197933,110,5,13,45352
1348580018,5807,986.3499755859375000,48.5676689147949200,679.3947143554688000,3.9873518943786620,53.9858703613281250,52,97,84,78,81,15217,2147760109,2147422098,2148013147,2147874038,2147644059,2147063661,2148264448,2147198372,165,4,13,1861
1348583618,5810,984.8099975585938000,48.5960388183593750,679.5020141601562000,3.9837949275970460,53.9850387573242200,52,98,85,81,81,15216,2147761499,2147422939,2148008182,2147874285,2147645065,2147056073,2148263981,2147198016,46,5,13,33876
1348587218,5809,1001.5200195312500000,48.9817085266113300,678.3114013671875000,4.0232467651367190,53.9145393371582000,53,98,84,79,82,15212,2147759579,2147421504,2148009307,2147877924,2147645229,2147061421,2148266752,2147198683,3070,4,13,24047
1348590818,5809,992.4899902343750000,48.9002914428710940,678.2965698242188000,4.0237369537353520,53.9241104125976560,53,97,87,79,83,15214,2147761170,2147422162,2148010788,2147873600,2147649051,2147064164,2148255177,2147194614,391,5,13,3226
1348594418,5810,990.7299804687500000,47.8450393676757800,677.3762817382812000,4.0542221069335940,54.0583992004394500,53,99,89,79,81,15214,2147758299,2147421997,2148010450,2147871369,2147645942,2147067785,2148258450,2147197942,3456,4,13,61302
1348598018,5807,998.8300170898438000,47.6475410461425800,675.8709716796875000,4.1040611267089840,54.0740585327148440,53,100,87,79,82,15214,2147760173,2147421504,2148008996,2147874349,2147646720,2147063378,2148258331,2147195200,588,4,13,49545
1348601618,5808,1007.4099731445312000,47.2863006591796900,675.2507934570312000,4.1245880126953125,54.1177101135253900,52,102,90,78,82,15212,2147761609,2147423268,2148006336,2147875172,2147642304,2147056557,2148260361,2147198372,135,5,13,30216
1348602055,5811,1008.2100219726562000,47.2027893066406250,675.1198730468750000,4.1289181709289550,54.1208305358886700,53,99,92,78,81,15238,2147759808,2147419373,2148008932,2147878875,2147642907,2147064475,2148265197,2147200548,3379,5,13,20099
